Starlink 6304

operational
NORAD ID: 56778 Int'l Des: 2023-078 Owner: SPXS Country: US Constellation: starlink
LEOCIRCULAR

About Starlink 6304

Description loading...

Live Position

Loading 3D Globe...

Upcoming Passes

Altitude History

Altitude vs Time

uPlot chart will show altitude changes over time

Two-Line Element Set

1 56778U 23078M 25353.47092256 -.00000088 00000-0 38400-6 0 9994
2 56778 69.9989 166.8709 0001989 267.4328 92.6603 14.98328250141151
Epoch: Dec 19, 2025 • Age: 11 hours

Current Status

Altitude 575.8 km
Velocity 7.57 km/s
Sub-Earth Point -8.28°S, 96.72°E
Launch Date May 31, 2023
Age 2.5 years
Type internet

Technical Details

Classification Payload
Mass 305.00 kg
Dry Mass 290.00 kg
Total Mass 305.00 kg
Length 0.20 m
Diameter 2.80 m
Span 9.00 m
Shape Box + pan
Manufacturer SPXS
Bus Type Starlink
Phase Status In Orbit
Owner/State SPXS/US

Large Constellations

Loading constellations...